Weather History for KSSF - December, 2011

Change the Weather History Date:

Thursday, December 1, 2011

  Actual Average Record
Temperature  
Mean Temperature 60 °F -  
Max Temperature 80 °F 64 °F 80 °F (2011)
Min Temperature 41 °F 45 °F 27 °F (2006)
Degree Days  
Heating Degree Days 4    
Growing Degree Days 10 (Base 50)    
Moisture  
Dew Point 49 °F    
Average Humidity 68    
Maximum Humidity 89    
Minimum Humidity 33    
Precipitation  
Precipitation 0.00 in - - ()
Sea Level Pressure  
Sea Level Pressure 30.09 in    
Wind  
Wind Speed 4 mph (ESE)    
Max Wind Speed 18 mph    
Max Gust Speed 25 mph    
Visibility 10 miles    
Events      
Averages and records for this station are not official NWS values.
T = Trace of Precipitation, MM = Missing Value Source: NWS Daily Summary

Daily Weather History Graph

Daily Weather History Graph

Search for Another Location

Airport or City:

Trip Planner

Search our weather history database for the weather conditions in past years. The results will help you decide how hot, cold, wet, or windy it might be!

Date:

Astronomy

Dec. 01, 2011 Rise Set
Actual Time 7:10 AM CST 5:35 PM CST
Civil Twilight 6:44 AM CST 6:00 PM CST
Nautical Twilight 6:15 AM CST 6:30 PM CST
Astronomical Twilight 5:46 AM CST 6:58 PM CST
Moon 12:15 PM CST (12/1) No Moon Set
Length of Visible Light 11h 16m
Length of Day
10h 24m
Waxing Crescent, 43% of the Moon is Illuminated
Dec 1
Waxing Crescent
Dec 2
First Quarter
Dec 10
Full
Dec 17
Last Quarter
Dec 24
New

Hourly Weather History & Observations

Time (CST) Temp. Dew Point Humidity Pressure Visibility Wind Dir Wind Speed Gust Speed Precip Events Conditions
1:53 AM 41.0 °F 35.1 °F 79% 30.08 in 10.0 mi Calm Calm - N/A   Clear
2:53 AM 42.1 °F 37.0 °F 82% 30.06 in 10.0 mi Calm Calm - N/A   Clear
3:53 AM 42.1 °F 37.9 °F 85% 30.06 in 10.0 mi Calm Calm - N/A   Clear
4:53 AM 43.0 °F 39.9 °F 89% 30.06 in 10.0 mi Calm Calm - N/A   Clear
5:53 AM 44.1 °F 41.0 °F 89% 30.09 in 10.0 mi Calm Calm - N/A   Partly Cloudy
6:14 AM 46.4 °F 42.8 °F 87% 30.08 in 10.0 mi Calm Calm - N/A   Mostly Cloudy
6:53 AM 48.0 °F 44.1 °F 86% 30.09 in 10.0 mi NNE 3.5 mph - N/A   Overcast
7:24 AM 48.2 °F 44.6 °F 87% 30.09 in 10.0 mi Calm Calm - N/A   Mostly Cloudy
8:01 AM 50.0 °F 46.4 °F 87% 30.10 in 10.0 mi Calm Calm - N/A   Mostly Cloudy
8:50 AM 53.6 °F 48.2 °F 82% 30.11 in 9.0 mi NNE 4.6 mph - N/A   Scattered Clouds
8:53 AM 54.0 °F 48.0 °F 80% 30.12 in 9.0 mi NNE 3.5 mph - N/A   Scattered Clouds
9:06 AM 55.4 °F 48.2 °F 77% 30.11 in 10.0 mi NE 3.5 mph - N/A   Mostly Cloudy
9:22 AM 57.2 °F 50.0 °F 77% 30.11 in 10.0 mi ENE 3.5 mph - N/A   Mostly Cloudy
9:34 AM 59.0 °F 51.8 °F 77% 30.12 in 10.0 mi ENE 4.6 mph - N/A   Mostly Cloudy
9:41 AM 59.0 °F 51.8 °F 77% 30.12 in 10.0 mi ESE 4.6 mph - N/A   Scattered Clouds
9:49 AM 60.8 °F 51.8 °F 72% 30.12 in 10.0 mi East 5.8 mph - N/A   Mostly Cloudy
9:53 AM 60.1 °F 52.0 °F 75% 30.13 in 10.0 mi East 5.8 mph - N/A   Mostly Cloudy
10:01 AM 60.8 °F 51.8 °F 72% 30.12 in 10.0 mi East 4.6 mph - N/A   Partly Cloudy
10:53 AM 69.1 °F 57.0 °F 65% 30.10 in 10.0 mi SE 8.1 mph - N/A   Clear
11:29 AM 71.6 °F 57.2 °F 60% 30.10 in 10.0 mi South 11.5 mph 17.3 mph N/A   Mostly Cloudy
11:38 AM 71.6 °F 57.2 °F 60% 30.09 in 10.0 mi South 11.5 mph 19.6 mph N/A   Mostly Cloudy
11:53 AM 73.9 °F 57.0 °F 55% 30.08 in 10.0 mi South 12.7 mph 20.7 mph N/A   Mostly Cloudy
12:53 PM 75.9 °F 53.1 °F 45% 30.04 in 10.0 mi South 13.8 mph 24.2 mph N/A   Partly Cloudy
1:53 PM 77.0 °F 54.0 °F 45% 30.01 in 10.0 mi SE 11.5 mph - N/A   Clear
2:53 PM 80.1 °F 48.9 °F 34% 29.99 in 10.0 mi South 18.4 mph 25.3 mph N/A   Clear
3:53 PM 80.1 °F 48.9 °F 34% 30.00 in 10.0 mi SSE 16.1 mph 24.2 mph N/A   Clear
4:53 PM 78.1 °F 46.9 °F 33% 30.02 in 10.0 mi SSE 13.8 mph 21.9 mph N/A   Clear
5:53 PM 75.0 °F 50.0 °F 41% 30.05 in 10.0 mi ESE 16.1 mph 20.7 mph N/A   Partly Cloudy
6:53 PM 72.0 °F 51.1 °F 48% 30.08 in 10.0 mi ESE 10.4 mph - N/A   Clear
7:53 PM 71.1 °F 53.1 °F 53% 30.11 in 10.0 mi SE 13.8 mph 20.7 mph N/A   Overcast
8:53 PM 69.1 °F 55.0 °F 61% 30.14 in 10.0 mi ESE 10.4 mph - N/A   Scattered Clouds
9:53 PM 64.9 °F 55.9 °F 73% 30.15 in 10.0 mi SE 5.8 mph - N/A   Clear
11:53 PM 63.0 °F 59.0 °F 87% 30.16 in 10.0 mi ENE 3.5 mph - N/A   Partly Cloudy